Regional Weather Roundup
Issued by NWS Cleveland, OH

Home | Current Version | Previous Version | Text Only | Print | Product List | Glossary On
Versions: 1 2 3 4 5 6 7 8 9 10 11 12 13 14 15 16 17 18 19 20 21 22 23 24 25 26 27 28 29 30 31 32 33 34 35 36 37 38 39 40 41 42 43 44 45 46 47 48 49 50
000
ASUS41 KCLE 061500
RWRCLE
OHIO REGIONAL WEATHER ROUNDUP
NATIONAL WEATHER SERVICE WILMINGTON, OH
1000 AM EST TUE DEC 06 2016

NOTE: "FAIR" INDICATES FEW OR NO CLOUDS BELOW 12,000 FEET WITH NO
SIGNIFICANT WEATHER AND/OR OBSTRUCTIONS TO VISIBILITY.

OHZ001>008-015>018-024>027-034-035-043-044-061600-
   NORTHWEST OHIO

CITY           SKY/WX    TMP DP  RH WIND       PRES   REMARKS
DEFIANCE       CLOUDY    37  29  72 E8        29.76F
FINDLAY        LGT RAIN  36  29  75 E8        29.72F
TOLEDO EXPRESS PTSUNNY   38  31  76 E14       29.75F
TOLEDO EXEC    PTSUNNY   38  31  76 E9        29.78F
LIMA           LGT RAIN  34  33  96 E10       29.70F FOG     WCI  26
$$

OHZ009>014-019>023-028>033-038-089-061600-
   NORTHEAST OHIO

CITY           SKY/WX    TMP DP  RH WIND       PRES   REMARKS
CLE-HOPKINS    CLOUDY    40  27  59 SE15      29.81F
CLE-LAKEFRONT  FAIR      40  28  62 SE18G28   29.79F
CUY CO. ARPT   CLOUDY    39  30  70 SE12G21   29.81F
LORAIN-ELYRIA  PTSUNNY   36  27  69 SE10      29.79F
ASHTABULA      FAIR      36  28  73 SE16      29.84F
AKRON-CANTON   LGT RAIN  37  30  75 E12       29.79F
WOOSTER        NOT AVBL
MANSFIELD      CLOUDY    34  31  88 E9        29.75S FOG     WCI  27
YOUNGSTOWN     CLOUDY    37  27  67 E20G29    29.82F
$$

OHZ042-051>053-060>062-070>072-077>081-061600-
  SOUTHWEST OHIO

CITY           SKY/WX    TMP DP  RH WIND       PRES   REMARKS
CINC-COVINGTON RAIN      41  40  96 N5        29.66R VSB 1
CINC-LUNKEN    RAIN      42  42 100 N3        29.68S FOG
HAMILTON       RAIN      40  38  93 NE3       29.68F FOG
DAYTON         NOT AVBL
WRIGHT-PAT AFB LGT RAIN  37  37 100 E7        29.68S FOG
DAYTON GENERAL RAIN      39  36  89 NE5       29.66S FOG
WILMINGTON     RAIN      39  39 100 E8        29.66S FOG
$$

OHZ036-037-039>041-045>050-054>059-063>069-073>076-082>088-061600-
  CENTRAL AND SOUTHEAST OHIO

CITY           SKY/WX    TMP DP  RH WIND       PRES   REMARKS
COLUMBUS       LGT RAIN  41  39  93 E14       29.70F
OSU AIRPORT    LGT RAIN  39  38  96 E9        29.70F FOG
BOLTON FIELD   LGT RAIN  37  36  93 E9        29.70F
RICKENBACK AFB NOT AVBL
NEWARK         LGT RAIN  38  34  85 NE6       29.73F
MARION         LGT RAIN  37  34  89 E13       29.72F FOG
LANCASTER      LGT RAIN  40  38  93 SE10      29.71F FOG
ZANESVILLE     LGT RAIN  39  35  86 E10       29.73F
NEW PHILLY     CLOUDY    38  33  82 E7        29.79F
$$




USA.gov is the U.S. government's official web portal to all federal, state and local government web resources and services.